Torna al catalogo

THORAD AGENA D DEB

AttivoLEO
NORAD 4768·DEBRIS·🇺🇸 United States

Lanciato Apr 8, 1970 da Vandenberg Space Force Base

Loading…

Prossimi Passaggi

TLE

Source: Space-Track
1  4768U 70025DN  26224.10102941  .00000161  00000-0  23201-3 0  9992
2  4768 100.1611 272.7919 0029451 235.7334 152.9001 13.71777991805522

Traccia THORAD AGENA D DEB in tempo reale con AllMySat

Download on the App Store